Date String (YYYY-MM-DD hh:mm:ss) UTC,Instrument flags,absolute air pressure of the measurement (hPa),sample flow rate (lpm),inlet stack bypass flow (lpm),air temperature of the measurement (°C),ambient temperature measured by the external sensor (°C),aerosol sample conditioner tube jacket temperature (°C),OPC LED temperature (°C),internal box temperature (°C),relative humidity of the measurement (%),span deviation,mass concentration of particles derived from Lorenz-Mie calculation of OPC scattering (μg/m³),mass concentration of particles derived from Lorenz-Mie calculation of OPC scattering (μg/m³),mass concentration of particles derived from Lorenz-Mie calculation of OPC scattering (μg/m³)
DateTimeUTC,F1_M11,P_M11,Q1_M11,Q2_M11,T1_M11,T2_M11,T3_M11,T4_M11,T5_M11,U1_M11,ZSPAN_M11,X2_M11,X0_M11,X1_M11
2023-09-04 05:00:00,SystemResetWarning,0828.2,5.00,000.00,028.9,027.0,000.0,037.3,030.1,32.6,0000.0,0002.37,0005.08,0001.81
2023-09-04 05:01:00,SystemResetWarning,0828.2,5.00,000.00,028.9,027.1,000.0,037.3,030.1,32.4,0000.0,0002.36,0004.76,0001.80
2023-09-04 05:02:00,SystemResetWarning,0828.2,4.99,000.00,028.9,027.2,000.0,037.3,030.1,32.8,0000.0,0002.34,0004.48,0001.79
2023-09-04 05:03:00,SystemResetWarning,0828.2,5.00,000.00,029.0,027.3,000.0,037.3,030.2,32.6,0000.0,0002.33,0004.42,0001.79
2023-09-04 05:04:00,SystemResetWarning,0828.2,5.00,000.00,029.0,027.3,000.0,037.3,030.2,32.6,0000.0,0002.34,0004.50,0001.78
2023-09-04 05:05:00,SystemResetWarning,0828.2,4.99,000.00,029.0,026.8,000.0,037.3,030.1,32.2,0000.0,0002.33,0004.18,0001.78
2023-09-04 05:06:00,SystemResetWarning,0828.2,4.99,000.00,028.9,025.2,000.0,037.2,029.5,32.3,0000.0,0002.32,0004.10,0001.78
2023-09-04 05:07:00,SystemResetWarning,0828.2,5.00,000.00,028.7,024.1,000.0,037.1,029.3,32.4,0000.0,0002.39,0004.34,0001.78
2023-09-04 05:08:00,SystemResetWarning,0828.2,5.01,000.00,028.6,024.0,000.0,037.0,029.2,32.4,0000.0,0002.39,0004.39,0001.77
2023-09-04 05:09:00,SystemResetWarning,0828.2,5.01,000.00,028.4,024.3,000.0,037.0,029.2,32.6,0000.0,0002.41,0004.41,0001.76
2023-09-04 05:10:00,SystemResetWarning,0828.2,4.99,000.00,028.4,024.7,000.0,037.0,029.3,32.9,0000.0,0002.48,0004.26,0001.76
2023-09-04 05:11:00,SystemResetWarning,0828.3,5.00,000.00,028.4,025.1,000.0,036.9,029.4,33.5,0000.0,0002.47,0004.60,0001.75
2023-09-04 05:12:00,SystemResetWarning,0828.3,5.00,000.00,028.4,025.5,000.0,036.9,029.5,34.7,0000.0,0002.45,0005.13,0001.76
2023-09-04 05:13:00,SystemResetWarning,0828.2,5.00,000.00,028.4,025.8,000.0,036.9,029.6,35.1,0000.0,0002.41,0005.01,0001.77
2023-09-04 05:14:00,SystemResetWarning,0828.3,4.98,000.00,028.6,026.1,000.0,036.9,029.8,35.0,0000.0,0002.40,0004.97,0001.77
2023-09-04 05:15:00,SystemResetWarning,0828.2,5.04,000.00,028.8,026.4,000.0,036.9,029.9,35.2,0000.0,0002.35,0004.79,0001.77
2023-09-04 05:16:00,SystemResetWarning,0828.2,4.97,000.00,029.1,026.6,000.0,036.9,030.1,34.3,0000.0,0002.32,0004.64,0001.78
2023-09-04 05:17:00,SystemResetWarning,0828.2,5.01,000.00,029.3,026.8,000.0,036.9,030.1,33.8,0000.0,0002.34,0004.65,0001.78
2023-09-04 05:18:00,SystemResetWarning,0828.1,5.00,000.00,029.4,026.9,000.0,037.0,030.2,33.6,0000.0,0002.24,0004.31,0001.75
2023-09-04 05:19:00,SystemResetWarning,0828.1,4.98,000.00,029.5,027.0,000.0,037.1,030.2,32.6,0000.0,0002.19,0004.12,0001.74
2023-09-04 05:20:00,SystemResetWarning,0828.1,5.00,000.00,029.6,027.1,000.0,037.2,030.2,32.4,0000.0,0002.13,0003.96,0001.73
2023-09-04 05:21:00,SystemResetWarning,0828.1,5.01,000.00,029.6,027.2,000.0,037.3,030.2,31.7,0000.0,0002.05,0003.82,0001.72
2023-09-04 05:22:00,SystemResetWarning,0828.0,5.01,000.00,029.7,027.3,000.0,037.3,030.2,32.2,0000.0,0002.05,0003.65,0001.72
2023-09-04 05:23:00,SystemResetWarning,0828.1,5.00,000.00,029.7,027.4,000.0,037.4,030.3,32.3,0000.0,0002.07,0002.84,0001.72
2023-09-04 05:24:00,SystemResetWarning,0828.0,4.99,000.00,029.7,027.4,000.0,037.5,030.3,32.3,0000.0,0002.06,0002.82,0001.71
2023-09-04 05:25:00,SystemResetWarning,0828.0,4.99,000.00,029.7,027.5,000.0,037.5,030.4,31.7,0000.0,0002.05,0002.86,0001.71
2023-09-04 05:26:00,SystemResetWarning,0827.9,5.00,000.00,029.7,026.6,000.0,037.5,030.2,31.9,0000.0,0002.11,0003.02,0001.72
2023-09-04 05:27:00,SystemResetWarning,0827.9,5.00,000.00,029.6,025.2,000.0,037.4,029.8,31.9,0000.0,0002.18,0003.25,0001.71
2023-09-04 05:28:00,SystemResetWarning,0827.9,5.02,000.00,029.5,024.8,000.0,037.4,029.7,31.8,0000.0,0002.18,0003.19,0001.72
2023-09-04 05:29:00,SystemResetWarning,0827.8,5.00,000.00,029.3,025.0,000.0,037.4,029.6,31.9,0000.0,0002.20,0003.25,0001.73
2023-09-04 05:30:00,SystemResetWarning,0827.8,5.00,000.00,029.3,025.3,000.0,037.4,029.7,32.1,0000.0,0002.21,0003.31,0001.74
2023-09-04 05:31:00,SystemResetWarning,0827.8,5.00,000.00,029.2,025.6,000.0,037.4,029.7,31.1,0000.0,0002.27,0003.47,0001.74
2023-09-04 05:32:00,SystemResetWarning,0827.8,4.99,000.00,029.2,026.0,000.0,037.4,029.8,31.0,0000.0,0002.28,0003.47,0001.73
2023-09-04 05:33:00,SystemResetWarning,0827.8,5.00,000.00,029.2,026.2,000.0,037.4,029.9,30.3,0000.0,0002.27,0003.40,0001.74
2023-09-04 05:34:00,SystemResetWarning,0827.8,5.00,000.00,029.2,026.5,000.0,037.4,029.9,31.2,0000.0,0002.25,0003.40,0001.73
2023-09-04 05:35:00,SystemResetWarning,0827.8,5.00,000.00,029.2,026.7,000.0,037.4,030.0,31.1,0000.0,0002.28,0003.50,0001.73
2023-09-04 05:36:00,SystemResetWarning,0827.8,5.00,000.00,029.2,026.8,000.0,037.4,030.0,30.5,0000.0,0002.29,0003.52,0001.73
2023-09-04 05:37:00,SystemResetWarning,0827.8,5.00,000.00,029.2,027.0,000.0,037.4,030.1,30.5,0000.0,0002.30,0003.48,0001.73
2023-09-04 05:38:00,SystemResetWarning,0827.9,4.99,000.00,029.2,027.1,000.0,037.4,030.1,31.1,0000.0,0002.23,0003.31,0001.73
2023-09-04 05:39:00,SystemResetWarning,0827.7,5.00,000.00,029.2,027.2,000.0,037.4,030.2,32.2,0000.0,0002.21,0003.29,0001.73
2023-09-04 05:40:00,SystemResetWarning,0827.7,5.00,000.00,029.2,027.3,000.0,037.4,030.2,33.6,0000.0,0002.19,0003.22,0001.74
2023-09-04 05:41:00,SystemResetWarning,0827.7,4.99,000.00,029.2,027.3,000.0,037.5,030.2,33.9,0000.0,0002.21,0003.23,0001.73
2023-09-04 05:42:00,SystemResetWarning,0827.8,5.00,000.00,029.2,027.4,000.0,037.5,030.3,33.9,0000.0,0002.22,0003.24,0001.74
2023-09-04 05:43:00,SystemResetWarning,0827.7,4.99,000.00,029.2,026.6,000.0,037.4,030.1,33.5,0000.0,0002.21,0003.19,0001.76
2023-09-04 05:44:00,SystemResetWarning,0827.7,5.01,000.00,029.1,025.2,000.0,037.3,029.7,34.1,0000.0,0002.22,0003.19,0001.76
2023-09-04 05:45:00,SystemResetWarning,0827.6,4.99,000.00,029.0,024.7,000.0,037.2,029.5,34.9,0000.0,0002.25,0003.25,0001.76
2023-09-04 05:46:00,SystemResetWarning,0827.7,5.03,000.00,028.9,024.8,000.0,037.2,029.4,35.4,0000.0,0002.23,0003.19,0001.77
2023-09-04 05:47:00,SystemResetWarning,0827.7,5.01,000.00,029.1,025.1,000.0,037.2,029.7,35.1,0000.0,0002.20,0003.10,0001.77
2023-09-04 05:48:00,SystemResetWarning,0827.7,4.97,000.00,029.3,025.5,000.0,037.2,029.9,34.5,0000.0,0002.18,0003.05,0001.77
2023-09-04 05:49:00,SystemResetWarning,0827.7,5.01,000.00,029.4,025.8,000.0,037.2,029.9,33.5,0000.0,0002.20,0003.44,0001.77
2023-09-04 05:50:00,SystemResetWarning,0827.7,5.01,000.00,029.5,026.1,000.0,037.3,030.0,33.4,0000.0,0002.22,0003.49,0001.77
2023-09-04 05:51:00,SystemResetWarning,0827.7,5.00,000.00,029.6,026.3,000.0,037.3,030.0,33.6,0000.0,0002.21,0003.56,0001.76
2023-09-04 05:52:00,SystemResetWarning,0827.7,5.01,000.00,029.6,026.6,000.0,037.4,030.1,33.3,0000.0,0002.17,0003.52,0001.76
2023-09-04 05:53:00,SystemResetWarning,0827.7,4.99,000.00,029.6,026.7,000.0,037.4,030.1,33.1,0000.0,0002.17,0003.54,0001.76
2023-09-04 05:54:00,SystemResetWarning,0827.7,4.99,000.00,029.6,026.9,000.0,037.5,030.1,32.9,0000.0,0002.16,0003.51,0001.76
2023-09-04 05:55:00,SystemResetWarning,0827.7,5.01,000.00,029.7,027.0,000.0,037.5,030.2,32.9,0000.0,0002.15,0003.48,0001.77
2023-09-04 05:56:00,SystemResetWarning,0827.7,5.01,000.00,029.7,027.1,000.0,037.6,030.2,32.9,0000.0,0002.13,0003.41,0001.76
2023-09-04 05:57:00,SystemResetWarning,0827.7,5.00,000.00,029.7,027.2,000.0,037.6,030.3,32.6,0000.0,0002.16,0003.54,0001.76
2023-09-04 05:58:00,SystemResetWarning,0827.7,5.00,000.00,029.7,027.3,000.0,037.7,030.3,32.5,0000.0,0002.19,0003.66,0001.75
2023-09-04 05:59:00,SystemResetWarning,0827.7,5.00,000.00,029.7,027.4,000.0,037.7,030.4,32.5,0000.0,0002.21,0003.70,0001.76
